date,Washington Chl-a,Washington Nitrate,Irminger Chl-a,Irminger Nitrate
2015-04-15 17:00:00,0.565529,0.733279,NaN,NaN
2015-04-15 18:00:00,0.546173,0.720207,NaN,NaN
2015-04-15 19:00:00,0.514333,0.739494,NaN,NaN
2015-04-15 20:00:00,0.503419,0.741553,NaN,NaN
2015-04-15 21:00:00,0.501838,0.793933,NaN,NaN
2015-04-15 22:00:00,0.52717,0.774697,NaN,NaN
2015-04-15 23:00:00,0.594907,0.796207,NaN,NaN
2015-04-16 00:00:00,0.668228,0.684988,NaN,NaN
2015-04-16 01:00:00,0.790682,0.673248,NaN,NaN
2015-04-16 02:00:00,0.836769,0.731513,NaN,NaN
2015-04-16 03:00:00,0.774244,0.761182,NaN,NaN
2015-04-16 04:00:00,0.760603,0.772206,NaN,NaN
2015-04-16 05:00:00,0.81738,0.787497,NaN,NaN
2015-04-16 06:00:00,0.856705,0.719845,NaN,NaN
2015-04-16 07:00:00,0.860847,0.765768,NaN,NaN
2015-04-16 08:00:00,0.892367,0.738706,NaN,NaN
2015-04-16 09:00:00,0.96841,0.713377,NaN,NaN
2015-04-16 10:00:00,0.925775,0.709827,NaN,NaN
2015-04-16 11:00:00,0.947289,0.695279,NaN,NaN
2015-04-16 12:00:00,0.967012,0.712879,NaN,NaN
2015-04-16 13:00:00,0.927626,0.755755,NaN,8.1256695
2015-04-16 14:00:00,0.906169,0.714019,NaN,NaN
2015-04-16 15:00:00,0.785055,0.796523,NaN,NaN
2015-04-16 16:00:00,0.65081,0.739562,NaN,8.417047
2015-04-16 17:00:00,0.604585,0.700391,NaN,NaN
2015-04-16 18:00:00,0.578028,0.727941,NaN,NaN
2015-04-16 19:00:00,0.56188,0.678494,NaN,NaN
2015-04-16 20:00:00,0.499761,0.735059,NaN,8.878394
2015-04-16 21:00:00,0.491611,0.741131,NaN,NaN
2015-04-16 22:00:00,0.492774,0.680321,NaN,NaN
2015-04-16 23:00:00,0.506583,0.679583,NaN,8.781268
2015-04-17 00:00:00,0.594099,0.693793,NaN,7.2760644
2015-04-17 01:00:00,0.773676,0.773204,NaN,7.9559445
2015-04-17 02:00:00,0.795626,0.849466,NaN,8.441491
2015-04-17 03:00:00,0.801767,0.864872,NaN,8.490054
2015-04-17 04:00:00,0.831881,0.845549,NaN,8.708506
2015-04-17 05:00:00,0.873706,0.884366,NaN,7.9556994
2015-04-17 06:00:00,0.825996,0.849083,NaN,NaN
2015-04-17 07:00:00,1.00498,2.22735,NaN,NaN
2015-04-17 08:00:00,0.744282,0.796234,NaN,NaN
2015-04-17 09:00:00,0.729741,0.811656,NaN,NaN
2015-04-17 10:00:00,0.716578,0.81261,NaN,NaN
2015-04-17 11:00:00,0.665919,0.790152,NaN,NaN
2015-04-17 12:00:00,0.650341,0.785603,NaN,NaN
2015-04-17 13:00:00,0.649431,0.820216,NaN,NaN
2015-04-17 14:00:00,0.733107,0.878296,NaN,NaN
2015-04-17 15:00:00,0.922632,1.02692,NaN,NaN
2015-04-17 16:00:00,0.827178,0.985343,NaN,NaN
2015-04-17 17:00:00,0.944273,1.00757,NaN,NaN
2015-04-17 18:00:00,1.05998,1.99625,NaN,NaN
2015-04-17 19:00:00,1.72798,2.68943,NaN,NaN
2015-04-17 20:00:00,1.38202,2.08433,NaN,NaN
2015-04-17 21:00:00,1.24509,1.48605,NaN,NaN
2015-04-17 22:00:00,1.16725,2.11147,NaN,7.882528
2015-04-17 23:00:00,0.968124,0.86722,NaN,8.732378
2015-04-18 00:00:00,1.30244,1.92786,NaN,8.732378
2015-04-18 01:00:00,1.67057,2.05599,NaN,7.809602
2015-04-18 02:00:00,1.53651,1.87711,NaN,7.9552903
2015-04-18 03:00:00,1.419,1.7896,NaN,8.926466
2015-04-18 04:00:00,1.38312,1.98,NaN,NaN
2015-04-18 05:00:00,1.40357,1.94776,NaN,NaN
2015-04-18 06:00:00,1.41401,1.97071,NaN,7.7609572
2015-04-18 07:00:00,1.41898,1.94384,NaN,NaN
2015-04-18 08:00:00,1.43148,1.984,NaN,NaN
2015-04-18 09:00:00,1.43867,2.10084,NaN,NaN
2015-04-18 10:00:00,1.44301,2.14116,NaN,NaN
2015-04-18 11:00:00,1.44831,2.15505,0.811978,NaN
2015-04-18 12:00:00,1.45791,2.2195,0.90448,NaN
2015-04-18 13:00:00,1.45043,2.38101,0.894667,NaN
2015-04-18 14:00:00,1.4494,2.27391,0.8488,NaN
2015-04-18 15:00:00,1.44733,2.25718,0.863812,NaN
2015-04-18 16:00:00,1.39442,2.24946,0.9008,NaN
2015-04-18 17:00:00,1.37414,2.36448,0.8907,NaN
2015-04-18 18:00:00,1.28334,2.31804,0.889211,NaN
2015-04-18 19:00:00,1.2014,2.50418,0.91158,NaN
2015-04-18 20:00:00,1.10062,2.39678,0.873149,NaN
2015-04-18 21:00:00,1.12214,2.3153,0.86646,NaN
2015-04-18 22:00:00,1.20733,2.27346,0.876184,NaN
2015-04-18 23:00:00,1.09037,1.88495,0.880852,NaN
2015-04-19 00:00:00,1.06788,2.02757,0.873973,NaN
2015-04-19 01:00:00,1.11555,1.93445,0.867638,8.34363
2015-04-19 02:00:00,1.04427,1.8045,0.781339,8.926221
2015-04-19 03:00:00,0.937767,1.87666,0.62823,9.193316
2015-04-19 04:00:00,0.908014,1.83128,0.484348,NaN
2015-04-19 05:00:00,0.891688,1.87541,0.439562,NaN
2015-04-19 06:00:00,0.880346,1.91663,0.4225,NaN
2015-04-19 07:00:00,0.877262,1.94534,0.47806,NaN
2015-04-19 08:00:00,0.903479,1.97331,0.531675,NaN
2015-04-19 09:00:00,0.967379,1.99502,0.422713,NaN
2015-04-19 10:00:00,1.06992,1.92916,0.444277,NaN
2015-04-19 11:00:00,1.19595,2.01098,0.467566,7.688031
2015-04-19 12:00:00,1.04452,1.95794,0.700385,NaN
2015-04-19 13:00:00,1.02297,1.74775,0.831248,NaN
2015-04-19 14:00:00,1.0749,1.68967,0.831915,NaN
2015-04-19 15:00:00,1.06115,1.62588,0.792156,NaN
2015-04-19 16:00:00,1.03626,1.57379,0.787763,NaN
2015-04-19 17:00:00,0.951596,1.64933,0.781583,NaN
2015-04-19 18:00:00,0.94584,1.64404,0.774912,NaN
2015-04-19 19:00:00,0.922764,1.67825,0.771052,7.8337197
2015-04-19 20:00:00,0.852726,1.69387,0.76864,NaN
2015-04-19 21:00:00,0.657012,1.83752,0.76657,NaN
2015-04-19 22:00:00,0.679134,1.70426,0.781885,NaN
2015-04-19 23:00:00,0.834968,1.89769,0.785325,8.756414
2015-04-20 00:00:00,0.856443,1.85487,0.784478,NaN
2015-04-20 01:00:00,1.0503,1.9357,0.811741,NaN
2015-04-20 02:00:00,1.54786,1.99093,0.760114,NaN
2015-04-20 03:00:00,1.67927,1.93989,0.550734,NaN
2015-04-20 04:00:00,1.60514,1.98523,0.437297,8.149134
2015-04-20 05:00:00,1.31648,1.90057,0.42911,8.319103
2015-04-20 06:00:00,1.14859,1.87527,0.423669,NaN
2015-04-20 07:00:00,1.00328,1.82138,0.394893,NaN
2015-04-20 08:00:00,0.922504,1.77482,0.407035,NaN
2015-04-20 09:00:00,0.929334,1.81175,0.430497,NaN
2015-04-20 10:00:00,0.883545,1.88304,0.45582,NaN
2015-04-20 11:00:00,0.892785,1.89882,0.526871,NaN
2015-04-20 12:00:00,0.887293,1.83686,0.613065,NaN
2015-04-20 13:00:00,0.806797,1.94007,0.679757,NaN
2015-04-20 14:00:00,0.800407,1.94923,0.754176,NaN
2015-04-20 15:00:00,0.682672,1.97515,0.742394,NaN
2015-04-20 16:00:00,0.596879,1.88211,0.75384,NaN
2015-04-20 17:00:00,0.596224,1.88867,0.750139,NaN
2015-04-20 18:00:00,0.665194,1.83239,0.737478,NaN
2015-04-20 19:00:00,0.70424,1.8463,0.729957,NaN
2015-04-20 20:00:00,1.34657,1.89619,0.762891,NaN
2015-04-20 21:00:00,1.22834,1.88914,0.77638,NaN
2015-04-20 22:00:00,0.995099,1.75737,0.74378,NaN
2015-04-20 23:00:00,1.40592,2.02124,0.74058,NaN
2015-04-21 00:00:00,4.05085,1.66511,0.682758,NaN
2015-04-21 01:00:00,8.74064,1.89652,0.722204,8.0032
2015-04-21 02:00:00,9.97857,1.8076,0.79708,NaN
2015-04-21 03:00:00,9.53487,1.92065,0.764627,8.877331
2015-04-21 04:00:00,8.7364,1.88773,0.63578,NaN
2015-04-21 05:00:00,9.31097,2.08949,0.578669,NaN
2015-04-21 06:00:00,9.92623,2.0499,0.461731,NaN
2015-04-21 07:00:00,9.59851,1.99257,0.41932,NaN
2015-04-21 08:00:00,9.55241,1.89095,0.417308,NaN
2015-04-21 09:00:00,9.97255,1.97789,0.427643,NaN
2015-04-21 10:00:00,11.1912,2.15166,0.513247,NaN
2015-04-21 11:00:00,11.3673,1.89468,0.567571,NaN
2015-04-21 12:00:00,11.4471,4.11359,0.694516,NaN
2015-04-21 13:00:00,11.9044,3.10277,0.712248,NaN
2015-04-21 14:00:00,11.9436,2.38372,0.732,NaN
2015-04-21 15:00:00,11.0168,6.00136,0.69226,NaN
2015-04-21 16:00:00,12.1568,4.80296,0.69504,NaN
2015-04-21 17:00:00,11.7028,3.78053,0.687669,NaN
2015-04-21 18:00:00,11.7138,2.52619,0.686683,NaN
2015-04-21 19:00:00,12.525,2.76585,0.67914,NaN
2015-04-21 20:00:00,13.9073,2.18401,0.672993,NaN
2015-04-21 21:00:00,15.3659,1.99278,0.69244,NaN
2015-04-21 22:00:00,16.0192,1.89768,0.675992,NaN
2015-04-21 23:00:00,16.4564,1.96914,0.652127,NaN
2015-04-22 00:00:00,15.5967,3.51247,0.63678,NaN
2015-04-22 01:00:00,15.4845,2.91381,0.708525,NaN
2015-04-22 02:00:00,13.3175,3.5363,0.792176,NaN
2015-04-22 03:00:00,11.3095,3.67226,0.81992,NaN
2015-04-22 04:00:00,10.4061,4.18859,0.791593,NaN
2015-04-22 05:00:00,10.0706,4.29071,0.673636,NaN
2015-04-22 06:00:00,8.97325,7.42792,0.63739,NaN
2015-04-22 07:00:00,9.30503,6.21995,0.481174,NaN
2015-04-22 08:00:00,9.50141,4.44249,0.505647,NaN
2015-04-22 09:00:00,9.4294,3.29518,0.508125,NaN
2015-04-22 10:00:00,9.30956,3.22403,0.640389,NaN
2015-04-22 11:00:00,9.19686,2.9716,0.69341,NaN
2015-04-22 12:00:00,9.11937,2.69776,0.574568,NaN
2015-04-22 13:00:00,8.98849,3.03817,0.623374,NaN
2015-04-22 14:00:00,8.29715,3.8789,0.639108,NaN
2015-04-22 15:00:00,6.35474,4.90513,0.647987,NaN
2015-04-22 16:00:00,5.54343,5.13647,0.706716,NaN
2015-04-22 17:00:00,4.97551,5.29253,0.755819,NaN
2015-04-22 18:00:00,5.96512,4.32801,0.654068,NaN
2015-04-22 19:00:00,8.64737,2.25264,0.628691,NaN
2015-04-22 20:00:00,10.1274,1.41487,0.619361,NaN
2015-04-22 21:00:00,9.76073,3.08029,0.606041,NaN
2015-04-22 22:00:00,10.5593,1.99336,0.63682,NaN
2015-04-22 23:00:00,12.6961,2.01231,0.650008,NaN
2015-04-23 00:00:00,13.2714,2.23621,0.58224,NaN
2015-04-23 01:00:00,13.2828,1.6194,0.577787,NaN
2015-04-23 02:00:00,10.5907,1.64089,0.595673,NaN
2015-04-23 03:00:00,9.09082,2.74412,0.525379,NaN
2015-04-23 04:00:00,8.03139,1.95565,0.508393,NaN
2015-04-23 05:00:00,6.09657,5.07629,0.516172,NaN
2015-04-23 06:00:00,5.96653,5.98637,0.46102,NaN
2015-04-23 07:00:00,5.1602,6.97478,0.43287,NaN
2015-04-23 08:00:00,9.54112,3.03633,0.461216,NaN
2015-04-23 09:00:00,6.94467,11.2985,0.488966,7.784258
2015-04-23 10:00:00,5.61916,18.2735,0.519303,NaN
2015-04-23 11:00:00,7.67505,14.808,0.611826,NaN
2015-04-23 12:00:00,9.47955,9.80461,0.700437,NaN
2015-04-23 13:00:00,6.36187,8.29062,0.785548,NaN
2015-04-23 14:00:00,7.06187,4.31078,0.778777,NaN
2015-04-23 15:00:00,6.44689,4.96589,0.71355,8.027072
2015-04-23 16:00:00,7.11425,4.04276,0.72842,8.367012
2015-04-23 17:00:00,7.45616,4.8768,0.783513,NaN
2015-04-23 18:00:00,9.63378,5.07455,0.834428,8.998248
2015-04-23 19:00:00,8.45383,7.08759,0.704419,NaN
2015-04-23 20:00:00,8.15152,8.68493,0.69841,8.561264
2015-04-23 21:00:00,6.05264,17.3731,0.718089,8.6339445
2015-04-23 22:00:00,6.58045,16.6693,0.741724,NaN
2015-04-23 23:00:00,6.99894,15.9346,0.722665,NaN
2015-04-24 00:00:00,7.53691,14.5754,0.711821,8.051108
2015-04-24 01:00:00,7.15847,15.358,0.722188,8.123871
2015-04-24 02:00:00,6.92699,15.2141,0.643037,8.269478
2015-04-24 03:00:00,8.02488,7.05084,0.53776,9.046484
2015-04-24 04:00:00,6.866,5.88801,0.473304,NaN
2015-04-24 05:00:00,6.89719,11.0144,0.498956,NaN
2015-04-24 06:00:00,6.36362,13.7217,0.476544,NaN
2015-04-24 07:00:00,6.13711,16.7809,0.489743,8.196633
2015-04-24 08:00:00,6.45517,16.6874,0.470264,NaN
2015-04-24 09:00:00,7.07573,15.4798,0.47104,NaN
2015-04-24 10:00:00,7.16305,15.7963,0.4798,NaN
2015-04-24 11:00:00,7.89788,14.7663,0.57584,NaN
2015-04-24 12:00:00,7.64566,14.4851,0.70758,NaN
2015-04-24 13:00:00,7.12485,15.8393,0.971672,8.730824
2015-04-24 14:00:00,6.82048,15.8605,0.814716,NaN
2015-04-24 15:00:00,6.4907,16.9823,0.660227,NaN
2015-04-24 16:00:00,6.46769,16.2073,0.624652,NaN
2015-04-24 17:00:00,6.74672,15.542,0.6484,NaN
2015-04-24 18:00:00,7.72946,14.3737,0.62226,NaN
2015-04-24 19:00:00,8.07169,13.3796,0.727826,NaN
2015-04-24 20:00:00,8.70626,13.0945,0.758768,NaN
2015-04-24 21:00:00,9.23988,13.5233,0.64898,NaN
2015-04-24 22:00:00,8.39882,14.0504,0.77216,NaN
2015-04-24 23:00:00,9.96855,12.6122,0.757482,NaN
2015-04-25 00:00:00,9.77361,12.0862,0.672062,NaN
2015-04-25 01:00:00,9.8822,11.1125,0.6341,8.560773
2015-04-25 02:00:00,10.2641,9.38669,0.657693,8.803588
2015-04-25 03:00:00,9.00938,10.2757,0.594971,8.779142
2015-04-25 04:00:00,8.27138,9.90406,0.4981,NaN
2015-04-25 05:00:00,7.67299,12.3093,0.456867,NaN
2015-04-25 06:00:00,7.62994,13.4326,0.37546,NaN
2015-04-25 07:00:00,7.32189,14.1593,0.389056,NaN
2015-04-25 08:00:00,7.45685,13.963,0.450475,NaN
2015-04-25 09:00:00,8.01367,12.4943,0.470896,NaN
2015-04-25 10:00:00,8.50299,10.7961,0.530149,NaN
2015-04-25 11:00:00,8.49951,11.8287,0.504434,NaN
2015-04-25 12:00:00,8.40607,14.2119,0.633457,NaN
2015-04-25 13:00:00,5.37686,17.7598,0.701011,NaN
2015-04-25 14:00:00,6.39925,17.1634,0.714735,NaN
2015-04-25 15:00:00,7.12127,16.862,0.65577,NaN
2015-04-25 16:00:00,6.50589,17.9142,0.787671,NaN
2015-04-25 17:00:00,8.68892,16.7407,0.815692,NaN
2015-04-25 18:00:00,14.643,8.9608,0.669958,NaN
2015-04-25 19:00:00,14.7539,4.23106,0.62827,NaN
2015-04-25 20:00:00,14.5976,6.50789,0.753455,NaN
2015-04-25 21:00:00,9.01256,15.1618,0.65274,NaN
2015-04-25 22:00:00,6.87797,17.6705,0.820231,NaN
2015-04-25 23:00:00,11.5332,14.2391,0.874857,NaN
2015-04-26 00:00:00,10.2612,12.6914,0.792422,NaN
2015-04-26 01:00:00,15.1178,9.78921,0.800993,NaN
2015-04-26 02:00:00,15.7325,3.69344,0.648005,NaN
2015-04-26 03:00:00,15.4499,5.21298,0.66042,NaN
2015-04-26 04:00:00,14.7612,2.98666,0.650726,NaN
2015-04-26 05:00:00,11.3755,6.19392,0.687513,NaN
2015-04-26 06:00:00,11.5689,4.53255,0.679749,NaN
2015-04-26 07:00:00,13.2944,2.62018,0.630193,NaN
2015-04-26 08:00:00,11.2579,4.42407,0.557288,NaN
2015-04-26 09:00:00,10.8436,4.31888,0.558295,NaN
2015-04-26 10:00:00,13.3595,2.16263,0.6395,NaN
2015-04-26 11:00:00,14.0509,2.48579,0.673193,NaN
2015-04-26 12:00:00,14.5067,3.03193,0.68941,NaN
2015-04-26 13:00:00,15.0661,2.25235,0.675027,NaN
2015-04-26 14:00:00,17.4384,1.56346,0.680035,NaN
2015-04-26 15:00:00,18.9355,1.50956,0.648087,NaN
2015-04-26 16:00:00,20.8549,1.75202,0.678722,8.511802
2015-04-26 17:00:00,15.8403,1.65108,0.694795,8.803179
2015-04-26 18:00:00,7.61024,1.751,0.66128,8.82746
2015-04-26 19:00:00,6.5308,5.10755,0.633236,8.99743
2015-04-26 20:00:00,16.9552,2.15163,0.628729,NaN
2015-04-26 21:00:00,19.1091,1.85462,0.626707,NaN
2015-04-26 22:00:00,18.2699,2.56872,0.632517,NaN
2015-04-26 23:00:00,18.1353,2.76667,0.67138,NaN
2015-04-27 00:00:00,18.4942,2.92641,0.67696,NaN
2015-04-27 01:00:00,16.9386,3.36643,0.71375,NaN
2015-04-27 02:00:00,16.0772,3.31759,0.620902,8.317469
2015-04-27 03:00:00,14.2419,3.86714,0.452704,NaN
2015-04-27 04:00:00,13.2134,4.38376,0.421471,NaN
2015-04-27 05:00:00,12.0824,4.89854,0.403342,NaN
2015-04-27 06:00:00,10.7972,6.40213,0.371788,NaN
2015-04-27 07:00:00,9.90848,7.72643,0.363897,NaN
2015-04-27 08:00:00,9.84539,7.34517,0.376652,NaN
2015-04-27 09:00:00,9.955,5.75846,0.38298,NaN
2015-04-27 10:00:00,9.88144,4.10275,0.412565,NaN
2015-04-27 11:00:00,9.23118,5.08703,0.434128,NaN
2015-04-27 12:00:00,8.84568,6.37508,0.557454,NaN
2015-04-27 13:00:00,8.92336,6.8024,0.61692,NaN
2015-04-27 14:00:00,9.09473,6.81113,0.612496,NaN
2015-04-27 15:00:00,9.07397,6.70287,0.624913,NaN
2015-04-27 16:00:00,9.56728,6.19464,0.6431,NaN
2015-04-27 17:00:00,9.61163,6.14132,0.645618,NaN
2015-04-27 18:00:00,10.0353,6.01762,0.628199,NaN
2015-04-27 19:00:00,10.949,6.01804,0.623946,NaN
2015-04-27 20:00:00,11.6304,6.00354,0.62096,NaN
2015-04-27 21:00:00,10.6869,6.0967,0.611577,NaN
2015-04-27 22:00:00,9.9068,6.7402,0.610746,NaN
2015-04-27 23:00:00,9.88289,7.84569,0.610922,NaN
2015-04-28 00:00:00,9.84276,7.94436,0.61601,NaN
2015-04-28 01:00:00,10.3135,7.25874,0.644674,NaN
2015-04-28 02:00:00,9.48338,7.51023,0.620044,NaN
2015-04-28 03:00:00,11.2211,5.64858,0.522216,NaN
2015-04-28 04:00:00,10.8498,5.4534,0.465363,NaN
2015-04-28 05:00:00,10.6129,5.47567,0.434014,NaN
2015-04-28 06:00:00,10.9774,4.90153,0.51026,NaN
2015-04-28 07:00:00,11.6685,4.52565,0.557889,NaN
2015-04-28 08:00:00,10.6325,5.29388,0.5769,8.705808
2015-04-28 09:00:00,10.0838,5.7786,0.643891,NaN
2015-04-28 10:00:00,8.4587,7.00955,0.620904,NaN
2015-04-28 11:00:00,9.14631,3.83333,0.706165,NaN
2015-04-28 12:00:00,8.99915,1.64227,0.733017,NaN
2015-04-28 13:00:00,8.04821,2.0312,0.73819,NaN
2015-04-28 14:00:00,7.68999,1.84357,0.736194,NaN
2015-04-28 15:00:00,9.41175,2.76604,0.722038,NaN
2015-04-28 16:00:00,8.96438,4.30268,0.752353,NaN
2015-04-28 17:00:00,7.92986,1.77822,0.761798,NaN
2015-04-28 18:00:00,8.602,1.45991,0.744825,NaN
2015-04-28 19:00:00,8.0028,1.80226,0.726975,NaN
2015-04-28 20:00:00,8.923,3.30481,0.724515,NaN
2015-04-28 21:00:00,12.5943,7.21697,0.735165,NaN
2015-04-28 22:00:00,11.3929,9.63885,0.728268,NaN
2015-04-28 23:00:00,8.2781,11.5615,0.720924,NaN
2015-04-29 00:00:00,9.40789,8.26446,0.711693,NaN
2015-04-29 01:00:00,11.6362,5.84921,0.73214,8.657245
2015-04-29 02:00:00,12.8697,6.0637,0.746564,8.2199335
2015-04-29 03:00:00,12.4028,3.91246,0.717163,8.195571
2015-04-29 04:00:00,9.16003,5.32091,0.700188,NaN
2015-04-29 05:00:00,7.75741,5.45109,0.696405,NaN
2015-04-29 06:00:00,7.66847,5.21566,0.73814,NaN
2015-04-29 07:00:00,10.0548,4.94734,0.730718,NaN
2015-04-29 08:00:00,10.723,2.07529,0.775727,8.2199335
2015-04-29 09:00:00,10.0465,2.10007,0.861272,NaN
2015-04-29 10:00:00,11.7496,2.10657,0.872009,NaN
2015-04-29 11:00:00,14.6897,2.01957,0.865078,NaN
2015-04-29 12:00:00,13.4953,1.93949,0.856488,NaN
2015-04-29 13:00:00,13.4833,1.99027,0.849987,NaN
2015-04-29 14:00:00,11.3224,2.04831,0.829219,NaN
2015-04-29 15:00:00,6.36951,1.85878,0.8421,NaN
2015-04-29 16:00:00,4.47772,1.67301,0.851226,NaN
2015-04-29 17:00:00,6.10897,1.70261,0.860501,NaN
2015-04-29 18:00:00,7.05213,3.33587,0.847222,NaN
2015-04-29 19:00:00,11.7476,5.77104,0.83578,NaN
2015-04-29 20:00:00,12.6511,5.03911,0.824193,NaN
2015-04-29 21:00:00,17.7752,6.78899,0.813943,NaN
2015-04-29 22:00:00,19.9855,5.71106,0.805702,NaN
2015-04-29 23:00:00,16.3547,3.81632,0.803346,NaN
2015-04-30 00:00:00,12.3743,2.69638,0.813843,NaN
2015-04-30 01:00:00,13.3332,2.50625,0.796799,NaN
2015-04-30 02:00:00,10.7765,2.31326,0.82499,NaN
2015-04-30 03:00:00,11.0877,2.40162,0.823701,NaN
2015-04-30 04:00:00,11.6441,2.54963,0.685347,NaN
2015-04-30 05:00:00,10.0369,2.0607,0.729336,8.146681
2015-04-30 06:00:00,9.05784,2.03346,0.729407,NaN
2015-04-30 07:00:00,8.51441,2.01398,0.762109,NaN
2015-04-30 08:00:00,10.256,2.16627,0.754357,NaN
2015-04-30 09:00:00,9.70324,2.39215,0.818937,NaN
2015-04-30 10:00:00,6.53252,3.2824,0.892243,NaN
2015-04-30 11:00:00,6.8109,2.89489,0.885877,NaN
2015-04-30 12:00:00,6.56413,2.74474,0.907868,NaN
2015-04-30 13:00:00,6.88254,3.19271,0.882869,NaN
2015-04-30 14:00:00,9.59384,2.07437,0.84998,NaN
2015-04-30 15:00:00,12.7606,2.23448,0.839489,NaN
2015-04-30 16:00:00,9.44696,2.36819,0.839527,NaN
2015-04-30 17:00:00,4.81101,2.52894,0.85396,NaN
2015-04-30 18:00:00,3.8515,2.55689,0.837906,NaN
2015-04-30 19:00:00,4.09411,2.49251,0.821955,NaN
2015-04-30 20:00:00,2.78202,2.64002,0.808566,NaN
2015-04-30 21:00:00,3.6078,2.81245,0.800517,NaN
2015-04-30 22:00:00,3.05468,3.18702,0.790496,NaN
2015-04-30 23:00:00,4.09414,3.12536,0.770964,NaN
2015-05-01 00:00:00,6.49903,2.98825,0.767489,NaN
2015-05-01 01:00:00,5.59989,2.73695,0.749417,NaN
2015-05-01 02:00:00,5.50987,2.45095,0.745178,NaN
2015-05-01 03:00:00,7.53653,2.32678,0.556014,NaN
2015-05-01 04:00:00,5.76583,2.61518,0.494591,NaN
2015-05-01 05:00:00,3.82665,2.65253,0.531069,NaN
2015-05-01 06:00:00,2.6001,2.29749,0.419736,NaN
2015-05-01 07:00:00,3.44909,2.29495,0.410132,NaN
2015-05-01 08:00:00,3.03753,2.72642,0.398934,NaN
2015-05-01 09:00:00,3.12976,2.69064,0.387976,NaN
2015-05-01 10:00:00,4.32325,2.90367,0.420151,8.462094
2015-05-01 11:00:00,3.19969,2.49867,0.516507,NaN
2015-05-01 12:00:00,3.22204,2.43212,0.531091,NaN
2015-05-01 13:00:00,3.13105,2.5033,0.699219,NaN
2015-05-01 14:00:00,2.6795,2.48216,0.82504,NaN
2015-05-01 15:00:00,2.48087,2.54122,0.813474,NaN
2015-05-01 16:00:00,2.40507,2.55968,0.797147,NaN
2015-05-01 17:00:00,1.94329,2.507,0.797784,NaN
2015-05-01 18:00:00,1.39283,2.58655,0.771264,8.243725
2015-05-01 19:00:00,2.22728,2.60444,0.755499,8.316569
2015-05-01 20:00:00,2.73981,2.12666,0.75916,8.097954
2015-05-01 21:00:00,3.57148,2.43567,0.760827,8.097954
2015-05-01 22:00:00,3.52719,2.88881,0.75474,8.340769
2015-05-01 23:00:00,3.43006,2.87802,0.731057,8.850597
2015-05-02 00:00:00,3.22703,2.85047,0.710304,NaN
2015-05-02 01:00:00,3.25516,2.93142,0.714011,NaN
2015-05-02 02:00:00,2.76053,3.06927,0.690616,NaN
2015-05-02 03:00:00,2.53304,3.01006,0.543031,NaN
2015-05-02 04:00:00,2.28852,2.96056,0.466226,NaN
2015-05-02 05:00:00,2.21941,2.95272,0.401783,NaN
2015-05-02 06:00:00,2.27952,2.89763,0.369329,NaN
2015-05-02 07:00:00,2.26329,2.89452,0.37396,NaN
2015-05-02 08:00:00,2.11683,3.03179,0.377501,NaN
2015-05-02 09:00:00,2.08113,3.10949,0.395408,NaN
2015-05-02 10:00:00,2.27961,3.17543,0.432418,NaN
2015-05-02 11:00:00,2.18881,3.24064,0.498798,NaN
2015-05-02 12:00:00,2.14225,3.0303,0.532587,NaN
2015-05-02 13:00:00,2.14997,2.9809,0.627818,NaN
2015-05-02 14:00:00,2.10111,3.01274,0.643264,NaN
2015-05-02 15:00:00,2.01578,3.03696,0.64994,NaN
2015-05-02 16:00:00,1.85716,2.99542,0.630822,NaN
2015-05-02 17:00:00,1.542,2.95669,0.637251,NaN
2015-05-02 18:00:00,1.45854,3.06972,0.6339,NaN
2015-05-02 19:00:00,1.44534,3.02452,0.634059,NaN
2015-05-02 20:00:00,1.48721,3.13834,0.618127,NaN
2015-05-02 21:00:00,1.5491,3.00541,0.614555,NaN
2015-05-02 22:00:00,1.6352,3.04496,0.606569,NaN
2015-05-02 23:00:00,1.53134,2.89019,0.590946,NaN
2015-05-03 00:00:00,1.83749,2.79158,0.589026,NaN
2015-05-03 01:00:00,2.51486,2.80234,0.59878,NaN
2015-05-03 02:00:00,2.66162,2.78976,0.59782,NaN
2015-05-03 03:00:00,2.67287,2.74081,0.558812,NaN
2015-05-03 04:00:00,2.33342,2.76228,0.492608,NaN
2015-05-03 05:00:00,2.17007,2.78658,0.40072,NaN
2015-05-03 06:00:00,2.21024,2.73465,0.40718,8.024701
2015-05-03 07:00:00,2.20246,2.72712,0.395523,NaN
2015-05-03 08:00:00,2.45007,2.69257,0.447092,NaN
2015-05-03 09:00:00,2.77146,2.73464,0.45112,NaN
2015-05-03 10:00:00,3.11972,2.73183,0.42476,NaN
2015-05-03 11:00:00,3.25119,2.68066,0.501218,NaN
2015-05-03 12:00:00,3.09219,2.57598,0.43765,8.316078
2015-05-03 13:00:00,2.92289,2.56763,0.590117,NaN
2015-05-03 14:00:00,3.50798,2.59349,0.654899,NaN
2015-05-03 15:00:00,4.34234,2.71075,0.66304,8.631737
2015-05-03 16:00:00,4.57014,2.82309,0.651396,8.87447
2015-05-03 17:00:00,4.48797,2.71763,0.651175,NaN
2015-05-03 18:00:00,4.35451,2.71029,0.657522,NaN
2015-05-03 19:00:00,3.35349,2.70404,0.627931,NaN
2015-05-03 20:00:00,4.29513,2.8169,0.620597,NaN
2015-05-03 21:00:00,2.90066,2.80573,0.623197,8.947314
2015-05-03 22:00:00,6.2464,2.79692,0.68736,NaN
2015-05-03 23:00:00,8.50821,2.9265,0.649369,NaN
2015-05-04 00:00:00,7.47978,2.93456,0.660448,NaN
2015-05-04 01:00:00,6.30731,2.87937,0.604179,NaN
2015-05-04 02:00:00,8.52142,2.84445,0.56528,NaN
2015-05-04 03:00:00,7.09205,2.94527,0.466695,NaN
2015-05-04 04:00:00,4.9656,3.11224,0.43678,NaN
2015-05-04 05:00:00,4.9824,3.03378,0.435797,NaN
2015-05-04 06:00:00,6.00648,2.38324,0.412344,NaN
2015-05-04 07:00:00,4.58893,2.86153,0.38232,NaN
2015-05-04 08:00:00,4.41282,2.69505,0.384882,NaN
2015-05-04 09:00:00,4.70753,3.09679,0.434927,NaN
2015-05-04 10:00:00,5.15825,3.18496,0.46056,NaN
2015-05-04 11:00:00,5.50752,3.09767,0.529743,NaN
2015-05-04 12:00:00,5.7627,3.07219,0.569173,NaN
2015-05-04 13:00:00,5.74776,3.036,0.65458,NaN
2015-05-04 14:00:00,5.58583,3.06152,0.635778,NaN
2015-05-04 15:00:00,5.18199,3.01648,0.63326,NaN
2015-05-04 16:00:00,4.90549,3.0773,0.626446,NaN
2015-05-04 17:00:00,4.60163,3.04014,0.657911,NaN
2015-05-04 18:00:00,4.0163,3.11871,0.643535,NaN
2015-05-04 19:00:00,3.88256,3.07998,0.677693,NaN
2015-05-04 20:00:00,3.16655,3.06076,0.709836,NaN
2015-05-04 21:00:00,3.01188,3.16997,0.7418,NaN
2015-05-04 22:00:00,2.91812,3.19585,0.737728,NaN
2015-05-04 23:00:00,2.63087,3.12697,0.686898,7.8302045
2015-05-05 00:00:00,2.71174,3.11923,0.682102,7.9030485
2015-05-05 01:00:00,3.13011,3.10538,0.686846,8.1942625
2015-05-05 02:00:00,3.3494,3.10538,0.65585,NaN
2015-05-05 03:00:00,2.85405,3.07878,0.48496,NaN
2015-05-05 04:00:00,2.65713,3.1974,0.414358,NaN
2015-05-05 05:00:00,2.43966,3.01484,0.469579,NaN
2015-05-05 06:00:00,2.57992,3.0086,0.450298,8.436995
2015-05-05 07:00:00,2.61778,3.09913,0.464627,7.5385003
2015-05-05 08:00:00,2.37721,2.90498,0.520279,7.854159
2015-05-05 09:00:00,2.43544,2.90146,0.508494,NaN
2015-05-05 10:00:00,2.43007,2.877,0.516487,NaN
2015-05-05 11:00:00,2.40985,2.85258,0.589031,7.4657373
2015-05-05 12:00:00,2.50336,2.85205,0.65106,NaN
2015-05-05 13:00:00,2.79338,2.93972,0.72909,NaN
2015-05-05 14:00:00,3.27548,3.1388,0.759073,NaN
2015-05-05 15:00:00,2.74899,3.09952,0.755642,NaN